Time,TemperatureF,DewpointF,PressureIn,WindDirection,WindDirectionDegrees,WindSpeedMPH,WindSpeedGustMPH,Humidity,HourlyPrecipIn,Conditions,Clouds,dailyrainin,SoftwareType,DateUTC
2013-10-14 00:02:00,68.9,68.3,30.11,NE,45,2.2,-999.0,98,-99.99,,,0.00,Acu-Link.com,2013-10-14 05:02:00,
2013-10-14 00:21:00,69.3,68.7,30.11,NE,45,0.0,-999.0,98,-99.99,,,0.00,Acu-Link.com,2013-10-14 05:21:00,
2013-10-14 00:36:00,68.4,67.8,30.10,NE,45,0.0,-999.0,98,-99.99,,,0.00,Acu-Link.com,2013-10-14 05:36:00,
2013-10-14 00:52:00,67.8,67.2,30.10,NE,45,0.0,-999.0,98,-99.99,,,0.00,Acu-Link.com,2013-10-14 05:52:00,
2013-10-14 01:07:00,67.3,66.7,30.09,SW,225,0.0,-999.0,98,-99.99,,,0.00,Acu-Link.com,2013-10-14 06:07:00,
2013-10-14 01:25:00,66.7,66.1,30.09,NE,45,0.0,-999.0,98,-99.99,,,0.00,Acu-Link.com,2013-10-14 06:25:00,
2013-10-14 01:40:00,66.6,66.0,30.09,South,180,0.0,-999.0,98,-99.99,,,0.00,Acu-Link.com,2013-10-14 06:40:00,
2013-10-14 01:55:00,66.2,65.6,30.09,NNE,22,0.0,-999.0,98,-99.99,,,0.00,Acu-Link.com,2013-10-14 06:55:00,
2013-10-14 02:13:00,66.2,65.6,30.09,SW,225,0.0,-999.0,98,-99.99,,,0.00,Acu-Link.com,2013-10-14 07:13:00,
2013-10-14 02:28:00,65.7,65.1,30.09,ENE,67,0.0,-999.0,98,-99.99,,,0.00,Acu-Link.com,2013-10-14 07:28:00,
2013-10-14 02:44:00,65.5,64.9,30.09,ESE,112,0.0,-999.0,98,-99.99,,,0.00,Acu-Link.com,2013-10-14 07:44:00,
2013-10-14 02:59:00,65.5,64.9,30.09,ESE,112,0.0,-999.0,98,-99.99,,,0.00,Acu-Link.com,2013-10-14 07:59:00,
2013-10-14 03:14:00,65.7,65.1,30.09,ENE,67,0.0,-999.0,98,-99.99,,,0.00,Acu-Link.com,2013-10-14 08:14:00,
2013-10-14 03:30:00,65.8,65.2,30.09,WSW,247,0.0,-999.0,98,-99.99,,,0.00,Acu-Link.com,2013-10-14 08:30:00,
2013-10-14 03:45:00,65.3,64.7,30.09,South,180,0.0,-999.0,98,-99.99,,,0.00,Acu-Link.com,2013-10-14 08:45:00,
2013-10-14 04:01:00,65.3,64.7,30.09,ESE,112,2.2,-999.0,98,-99.99,,,0.00,Acu-Link.com,2013-10-14 09:01:00,
2013-10-14 04:16:00,65.7,65.1,30.09,NNE,22,0.0,-999.0,98,-99.99,,,0.00,Acu-Link.com,2013-10-14 09:16:00,
2013-10-14 04:31:00,65.3,64.7,30.08,SSE,157,0.0,-999.0,98,-99.99,,,0.00,Acu-Link.com,2013-10-14 09:31:00,
2013-10-14 04:46:00,65.1,64.5,30.09,North,0,2.2,-999.0,98,-99.99,,,0.00,Acu-Link.com,2013-10-14 09:46:00,
2013-10-14 05:01:00,65.5,64.9,30.09,ESE,112,2.2,-999.0,98,-99.99,,,0.00,Acu-Link.com,2013-10-14 10:01:00,
2013-10-14 05:16:00,65.7,65.1,30.09,NE,45,0.0,-999.0,98,-99.99,,,0.00,Acu-Link.com,2013-10-14 10:16:00,
2013-10-14 05:31:00,65.7,65.1,30.09,SSW,202,1.1,-999.0,98,-99.99,,,0.00,Acu-Link.com,2013-10-14 10:31:00,
2013-10-14 05:46:00,65.8,65.2,30.09,NE,45,0.0,-999.0,98,-99.99,,,0.00,Acu-Link.com,2013-10-14 10:46:00,
2013-10-14 06:01:00,65.3,64.7,30.10,ENE,67,0.0,-999.0,98,-99.99,,,0.00,Acu-Link.com,2013-10-14 11:01:00,
2013-10-14 06:16:00,65.1,64.5,30.10,ESE,112,0.0,-999.0,98,-99.99,,,0.00,Acu-Link.com,2013-10-14 11:16:00,
2013-10-14 06:31:00,64.4,63.8,30.10,South,180,0.0,-999.0,98,-99.99,,,0.00,Acu-Link.com,2013-10-14 11:31:00,
2013-10-14 06:47:00,63.9,63.3,30.11,West,270,0.0,-999.0,98,-99.99,,,0.00,Acu-Link.com,2013-10-14 11:47:00,
2013-10-14 07:02:00,63.3,62.7,30.10,SSW,202,0.0,-999.0,98,-99.99,,,0.00,Acu-Link.com,2013-10-14 12:02:00,
2013-10-14 07:17:00,63.1,62.5,30.10,NE,45,0.0,-999.0,98,-99.99,,,0.00,Acu-Link.com,2013-10-14 12:17:00,
2013-10-14 07:32:00,63.1,62.5,30.11,WSW,247,0.0,-999.0,98,-99.99,,,0.00,Acu-Link.com,2013-10-14 12:32:00,
2013-10-14 07:47:00,63.7,63.1,30.11,WNW,292,0.0,-999.0,98,-99.99,,,0.00,Acu-Link.com,2013-10-14 12:47:00,
2013-10-14 08:02:00,64.6,64.0,30.10,SSE,157,3.2,-999.0,98,-99.99,,,0.00,Acu-Link.com,2013-10-14 13:02:00,
2013-10-14 08:17:00,65.7,65.1,30.11,SSE,157,1.7,-999.0,98,-99.99,,,0.00,Acu-Link.com,2013-10-14 13:17:00,
2013-10-14 08:32:00,66.4,65.8,30.11,ESE,112,0.0,-999.0,98,-99.99,,,0.00,Acu-Link.com,2013-10-14 13:32:00,
2013-10-14 08:47:00,68.2,67.6,30.11,NE,45,1.7,-999.0,98,-99.99,,,0.00,Acu-Link.com,2013-10-14 13:47:00,
2013-10-14 09:03:00,69.1,68.5,30.11,NNE,22,1.7,-999.0,98,-99.99,,,0.00,Acu-Link.com,2013-10-14 14:03:00,
2013-10-14 09:18:00,70.5,69.9,30.11,ENE,67,1.7,-999.0,98,-99.99,,,0.00,Acu-Link.com,2013-10-14 14:18:00,
2013-10-14 09:33:00,72.3,71.7,30.10,WSW,247,1.7,-999.0,98,-99.99,,,0.00,Acu-Link.com,2013-10-14 14:33:00,
2013-10-14 09:48:00,73.6,73.0,30.10,NNW,337,1.7,-999.0,98,-99.99,,,0.00,Acu-Link.com,2013-10-14 14:48:00,
2013-10-14 10:03:00,75.0,74.4,30.10,South,180,0.0,-999.0,98,-99.99,,,0.00,Acu-Link.com,2013-10-14 15:03:00,
2013-10-14 10:18:00,76.3,75.7,30.10,SE,135,1.1,-999.0,98,-99.99,,,0.00,Acu-Link.com,2013-10-14 15:18:00,
2013-10-14 10:33:00,77.7,77.1,30.10,SSW,202,3.2,-999.0,98,-99.99,,,0.00,Acu-Link.com,2013-10-14 15:33:00,
2013-10-14 10:48:00,78.8,78.2,30.10,SE,135,2.2,-999.0,98,-99.99,,,0.00,Acu-Link.com,2013-10-14 15:48:00,
2013-10-14 11:03:00,79.9,79.3,30.10,SSE,157,2.2,-999.0,98,-99.99,,,0.00,Acu-Link.com,2013-10-14 16:03:00,
2013-10-14 11:19:00,80.1,79.5,30.10,West,270,0.0,-999.0,98,-99.99,,,0.00,Acu-Link.com,2013-10-14 16:19:00,
2013-10-14 11:34:00,81.1,80.5,30.10,NNE,22,0.0,-999.0,98,-99.99,,,0.00,Acu-Link.com,2013-10-14 16:34:00,
2013-10-14 11:49:00,83.3,82.7,30.09,SE,135,1.1,-999.0,98,-99.99,,,0.00,Acu-Link.com,2013-10-14 16:49:00,
2013-10-14 12:04:00,83.5,82.9,30.08,SW,225,2.2,-999.0,98,-99.99,,,0.00,Acu-Link.com,2013-10-14 17:04:00,
2013-10-14 12:19:00,84.0,83.4,30.08,South,180,1.7,-999.0,98,-99.99,,,0.00,Acu-Link.com,2013-10-14 17:19:00,
2013-10-14 12:34:00,84.7,84.1,30.07,SW,225,1.7,-999.0,98,-99.99,,,0.00,Acu-Link.com,2013-10-14 17:34:00,
2013-10-14 12:49:00,85.1,84.5,30.06,SSW,202,1.1,-999.0,98,-99.99,,,0.00,Acu-Link.com,2013-10-14 17:49:00,
2013-10-14 13:04:00,84.0,83.4,30.05,ENE,67,0.0,-999.0,98,-99.99,,,0.00,Acu-Link.com,2013-10-14 18:04:00,
2013-10-14 13:19:00,87.1,86.5,30.04,East,90,1.7,-999.0,98,-99.99,,,0.00,Acu-Link.com,2013-10-14 18:19:00,
2013-10-14 13:35:00,88.5,87.9,30.03,South,180,3.2,-999.0,98,-99.99,,,0.00,Acu-Link.com,2013-10-14 18:35:00,
2013-10-14 13:50:00,88.5,87.9,30.02,SE,135,1.7,-999.0,98,-99.99,,,0.00,Acu-Link.com,2013-10-14 18:50:00,
2013-10-14 14:05:00,87.3,86.7,30.01,NE,45,2.7,-999.0,98,-99.99,,,0.00,Acu-Link.com,2013-10-14 19:05:00,
2013-10-14 14:20:00,86.0,85.4,30.00,NNW,337,6.3,-999.0,98,-99.99,,,0.00,Acu-Link.com,2013-10-14 19:20:00,
2013-10-14 14:35:00,86.4,85.8,30.00,NNW,337,0.0,-999.0,98,-99.99,,,0.00,Acu-Link.com,2013-10-14 19:35:00,
2013-10-14 14:50:00,86.4,85.8,29.99,NW,315,2.2,-999.0,98,-99.99,,,0.00,Acu-Link.com,2013-10-14 19:50:00,
2013-10-14 15:05:00,87.3,86.7,29.99,SE,135,1.7,-999.0,98,-99.99,,,0.00,Acu-Link.com,2013-10-14 20:05:00,
2013-10-14 15:20:00,86.7,86.1,29.99,NE,45,0.0,-999.0,98,-99.99,,,0.00,Acu-Link.com,2013-10-14 20:20:00,
2013-10-14 15:35:00,87.6,87.0,29.99,NE,45,0.0,-999.0,98,-99.99,,,0.00,Acu-Link.com,2013-10-14 20:35:00,
2013-10-14 15:51:00,87.8,87.2,29.98,NNE,22,3.2,-999.0,98,-99.99,,,0.00,Acu-Link.com,2013-10-14 20:51:00,
2013-10-14 16:06:00,86.4,85.8,29.98,NNW,337,2.7,-999.0,98,-99.99,,,0.00,Acu-Link.com,2013-10-14 21:06:00,
2013-10-14 16:21:00,87.4,86.8,29.98,West,270,0.0,-999.0,98,-99.99,,,0.00,Acu-Link.com,2013-10-14 21:21:00,
2013-10-14 16:36:00,87.6,87.0,29.98,SSE,157,0.0,-999.0,98,-99.99,,,0.00,Acu-Link.com,2013-10-14 21:36:00,
2013-10-14 16:51:00,85.3,84.7,29.98,SE,135,1.1,-999.0,98,-99.99,,,0.00,Acu-Link.com,2013-10-14 21:51:00,
2013-10-14 17:06:00,84.2,83.6,29.98,NE,45,0.0,-999.0,98,-99.99,,,0.00,Acu-Link.com,2013-10-14 22:06:00,
2013-10-14 17:21:00,82.4,81.8,29.99,NE,45,0.0,-999.0,98,-99.99,,,0.00,Acu-Link.com,2013-10-14 22:21:00,
2013-10-14 17:36:00,83.5,82.9,29.98,SSW,202,0.0,-999.0,98,-99.99,,,0.00,Acu-Link.com,2013-10-14 22:36:00,
2013-10-14 17:51:00,81.1,80.5,29.98,SE,135,0.0,-999.0,98,-99.99,,,0.00,Acu-Link.com,2013-10-14 22:51:00,
2013-10-14 18:06:00,77.9,77.3,29.99,SSE,157,0.0,-999.0,98,-99.99,,,0.00,Acu-Link.com,2013-10-14 23:06:00,
2013-10-14 18:22:00,76.3,75.7,29.99,ESE,112,0.0,-999.0,98,-99.99,,,0.00,Acu-Link.com,2013-10-14 23:22:00,
2013-10-14 18:37:00,74.5,73.9,29.99,SE,135,0.0,-999.0,98,-99.99,,,0.00,Acu-Link.com,2013-10-14 23:37:00,
2013-10-14 18:52:00,72.3,71.7,29.99,WSW,247,0.0,-999.0,98,-99.99,,,0.00,Acu-Link.com,2013-10-14 23:52:00,
2013-10-14 19:07:00,71.1,70.5,29.99,West,270,0.0,-999.0,98,-99.99,,,0.00,Acu-Link.com,2013-10-15 00:07:00,
2013-10-14 19:22:00,70.0,69.4,29.99,WNW,292,0.0,-999.0,98,-99.99,,,0.00,Acu-Link.com,2013-10-15 00:22:00,
2013-10-14 19:37:00,69.1,68.5,29.98,ENE,67,0.0,-999.0,98,-99.99,,,0.00,Acu-Link.com,2013-10-15 00:37:00,
2013-10-14 19:52:00,68.4,67.8,29.98,East,90,0.0,-999.0,98,-99.99,,,0.00,Acu-Link.com,2013-10-15 00:52:00,
2013-10-14 20:07:00,67.5,66.9,29.98,NW,315,0.0,-999.0,98,-99.99,,,0.00,Acu-Link.com,2013-10-15 01:07:00,
2013-10-14 20:22:00,66.6,66.0,29.99,NW,315,0.0,-999.0,98,-99.99,,,0.00,Acu-Link.com,2013-10-15 01:22:00,
2013-10-14 20:38:00,66.0,65.4,30.00,ENE,67,0.0,-999.0,98,-99.99,,,0.00,Acu-Link.com,2013-10-15 01:38:00,
2013-10-14 20:55:00,65.1,64.5,30.00,North,0,0.0,-999.0,98,-99.99,,,0.00,Acu-Link.com,2013-10-15 01:55:00,
2013-10-14 21:10:00,64.8,64.2,30.00,NNE,22,0.0,-999.0,98,-99.99,,,0.00,Acu-Link.com,2013-10-15 02:10:00,
2013-10-14 21:39:00,64.6,64.0,30.01,ENE,67,0.0,-999.0,98,-99.99,,,0.00,Acu-Link.com,2013-10-15 02:39:00,
2013-10-14 21:55:00,63.9,63.3,30.00,NE,45,0.0,-999.0,98,-99.99,,,0.00,Acu-Link.com,2013-10-15 02:55:00,
2013-10-14 22:10:00,63.9,63.3,30.00,NNW,337,0.0,-999.0,98,-99.99,,,0.00,Acu-Link.com,2013-10-15 03:10:00,
2013-10-14 22:25:00,63.3,62.7,30.01,NNW,337,0.0,-999.0,98,-99.99,,,0.00,Acu-Link.com,2013-10-15 03:25:00,
2013-10-14 22:40:00,63.3,62.7,30.00,NNW,337,0.0,-999.0,98,-99.99,,,0.00,Acu-Link.com,2013-10-15 03:40:00,
2013-10-14 22:55:00,63.0,62.4,30.00,NNW,337,0.0,-999.0,98,-99.99,,,0.00,Acu-Link.com,2013-10-15 03:55:00,
2013-10-14 23:11:00,63.0,62.4,30.00,NNW,337,0.0,-999.0,98,-99.99,,,0.00,Acu-Link.com,2013-10-15 04:11:00,
2013-10-14 23:26:00,62.6,62.0,30.00,NNW,337,0.0,-999.0,98,-99.99,,,0.00,Acu-Link.com,2013-10-15 04:26:00,
2013-10-14 23:41:00,62.2,61.6,30.00,NNW,337,0.0,-999.0,98,-99.99,,,0.00,Acu-Link.com,2013-10-15 04:41:00,
2013-10-14 23:57:00,62.1,61.5,30.01,NNW,337,0.0,-999.0,98,-99.99,,,0.00,Acu-Link.com,2013-10-15 04:57:00,